Location: Newark
(48.4472°N, 1.4892°E)
Time: 13:19:44
(UTC+00:00)

Transit 4A - Pass Details

Date: 25 January 2021
Orbit: 866 x 978 km, 66.8° (Epoch: 01 March)

Event Time Altitude Azimuth Distance (km) Brightness Sun altitude
Rises 17:48:34 0° 182° (S) 3,659 11.2 -11.1°
Reaches altitude 10° 17:51:21 10° 173° (S) 2,720 10.5 -11.5°
Maximum altitude 17:56:58 34° 111° (ESE) 1,553 8.7 -12.4°
Enters shadow 18:01:25 15° 55° (NE) 2,355 9.4 -13.1°
